Lake Minnetonka Weather Center

Moon Phase Calendar



Lake Minnetonka Water Level
Online Cameras

 


      

Current Conditions in Spring Park
2/22/2024 12:27:32 PM

47°F
Feels Like 41
Clear
Humidity
69%
Pressure
29.74"
Wind
15 mph (WNW)
Dew Point
38°F
UV Index
2/10 (Low)
Visibility
6 mi

Hourly Forecast

Date & Time Thu, Feb 22
12:00 PM
Thu, Feb 22
1:00 PM
Thu, Feb 22
2:00 PM
Thu, Feb 22
3:00 PM
Thu, Feb 22
4:00 PM
Thu, Feb 22
5:00 PM
Thu, Feb 22
6:00 PM
Thu, Feb 22
7:00 PM
Thu, Feb 22
8:00 PM
Thu, Feb 22
9:00 PM
Thu, Feb 22
10:00 PM
Thu, Feb 22
11:00 PM
Fri, Feb 23
12:00 AM
Fri, Feb 23
1:00 AM
Fri, Feb 23
2:00 AM
Fri, Feb 23
3:00 AM
Fri, Feb 23
4:00 AM
Fri, Feb 23
5:00 AM
Fri, Feb 23
6:00 AM
Fri, Feb 23
7:00 AM
Fri, Feb 23
8:00 AM
Fri, Feb 23
9:00 AM
Fri, Feb 23
10:00 AM
Fri, Feb 23
11:00 AM
Fri, Feb 23
12:00 PM
Fri, Feb 23
1:00 PM
Fri, Feb 23
2:00 PM
Fri, Feb 23
3:00 PM
Fri, Feb 23
4:00 PM
Fri, Feb 23
5:00 PM
Fri, Feb 23
6:00 PM
Fri, Feb 23
7:00 PM
Fri, Feb 23
8:00 PM
Fri, Feb 23
9:00 PM
Fri, Feb 23
10:00 PM
Fri, Feb 23
11:00 PM
Sat, Feb 24
12:00 AM
Sat, Feb 24
1:00 AM
Sat, Feb 24
2:00 AM
Sat, Feb 24
3:00 AM
Sat, Feb 24
4:00 AM
Sat, Feb 24
5:00 AM
Sat, Feb 24
6:00 AM
Sat, Feb 24
7:00 AM
Sat, Feb 24
8:00 AM
Sat, Feb 24
9:00 AM
Sat, Feb 24
10:00 AM
Sat, Feb 24
11:00 AM
Condition
Clear

Clear

Clear

Clear

Clear

Clear

Clear

Clear

Clear

Clouds

Clouds

Clouds

Clouds

Clouds

Clouds

Clouds

Clouds

Clouds

Clouds

Clouds

Clouds

Clouds

Clouds

Clouds

Clouds

Clouds

Clouds

Clouds

Clouds

Clouds

Clouds

Clouds

Clouds

Clouds

Clouds

Clear

Clear

Clear

Clear

Clear

Clear

Clear

Clear

Clear

Clear

Clear

Clear

Clear
Temperature 47°F47°F47°F47°F47°F45°F42°F40°F39°F38°F37°F36°F36°F35°F34°F34°F34°F33°F32°F31°F32°F33°F34°F34°F34°F33°F34°F34°F34°F33°F31°F29°F27°F27°F26°F26°F26°F26°F25°F25°F25°F24°F24°F24°F26°F29°F32°F35°F
Feels Like 42°F41°F42°F41°F41°F38°F35°F34°F33°F32°F31°F30°F30°F29°F29°F28°F29°F28°F26°F25°F25°F25°F25°F25°F24°F24°F25°F25°F25°F25°F23°F21°F20°F20°F20°F20°F21°F21°F20°F19°F17°F16°F16°F15°F16°F19°F22°F26°F
Cloudiness 0%0%0%1%2%2%3%10%10%11%18%23%32%90%64%63%70%76%80%86%86%81%85%88%90%100%100%100%100%100%100%34%21%14%11%9%7%0%0%0%0%0%0%0%0%0%0%0%
Visibility 6 mi6 mi6 mi6 mi6 mi6 mi6 mi6 mi6 mi6 mi6 mi6 mi6 mi6 mi6 mi6 mi6 mi6 mi6 mi6 mi6 mi6 mi6 mi6 mi6 mi6 mi6 mi6 mi6 mi6 mi6 mi6 mi6 mi6 mi6 mi6 mi6 mi6 mi6 mi6 mi6 mi6 mi6 mi6 mi6 mi6 mi6 mi6 mi
Precipitation 0%0%0%0%0%0%0%0%0%0%0%0%0%0%0%0%0%0%0%0%0%0%0%0%0%0%0%0%0%0%0%0%0%0%0%0%0%0%0%0%0%0%0%0%0%0%0%0%
Humidity 69%66%62%57%53%52%56%61%63%64%66%69%70%72%74%75%76%77%80%82%80%71%66%64%65%58%53%52%50%49%46%42%40%38%38%38%39%40%40%42%45%46%46%48%46%44%48%50%
Dew Point 38°F36°F35°F33°F31°F28°F28°F28°F27°F27°F27°F27°F27°F27°F27°F27°F27°F27°F27°F27°F27°F25°F24°F23°F23°F20°F19°F18°F17°F16°F12°F8°F6°F4°F4°F4°F4°F4°F4°F5°F6°F6°F6°F7°F8°F10°F14°F19°F
Pressure 29.74"29.74"29.77"29.77"29.8"29.8"29.83"29.83"29.83"29.83"29.83"29.8"29.8"29.8"29.8"29.8"29.77"29.77"29.8"29.8"29.83"29.85"29.85"29.88"29.91"29.91"29.91"29.94"29.94"29.97"30"30.03"30.03"30.06"30.06"30.09"30.09"30.09"30.09"30.09"30.09"30.06"30.06"30.06"30.03"30.03"30"29.94"
Wind Speed 13.1 mph13.7 mph14.2 mph15 mph14.5 mph13.9 mph11.6 mph10.2 mph9.1 mph8.3 mph7.6 mph7.6 mph7.5 mph7.4 mph6.9 mph6.3 mph5.9 mph5.8 mph6.5 mph6.4 mph8.3 mph12 mph13 mph13.4 mph13.5 mph13.3 mph12.4 mph12.1 mph11.2 mph10.4 mph8.8 mph8 mph7.2 mph6.4 mph5.7 mph4.8 mph4.3 mph3.9 mph4.1 mph5 mph6.4 mph7 mph7.4 mph8.2 mph9.3 mph11.7 mph13.2 mph13.5 mph
Wind
Direction
303°
WNW
303°
WNW
304°
NW
305°
NW
304°
NW
303°
WNW
297°
WNW
291°
WNW
285°
WNW
284°
WNW
278°
W
276°
W
277°
W
278°
W
281°
W
286°
WNW
295°
WNW
305°
NW
327°
NNW
338°
NNW
348°
NNW
355°
N
352°
N
352°
N
357°
N
353°
N
350°
N
354°
N
353°
N
357°
N
12°
NNE
20°
NNE
19°
NNE
21°
NNE
36°
NE
47°
NE
73°
ENE
105°
ESE
139°
SE
169°
S
174°
S
171°
S
177°
S
174°
S
176°
S
191°
S
195°
SSW
194°
SSW

Daily Forecast

Date High Low Precip. Humidity
Today
Feb 22

Clear
47 °F
35 °F
0%
69%
Friday
Feb 23

Clouds
35 °F
25 °F
0%
58%
Saturday
Feb 24

Clear
43 °F
23 °F
0%
48%
Sunday
Feb 25

Snow
41 °F
32 °F
48%
50%
Monday
Feb 26

Clouds
55 °F
30 °F
0%
54%
Tuesday
Feb 27

Clouds
56 °F
43 °F
0%
73%
Wednesday
Feb 28

Snow
34 °F
19 °F
100%
82%
Thursday
Feb 29

Snow
19 °F
7 °F
100%
83%
Friday
Mar 1

Clear
34 °F
3 °F
0%
67%
Saturday
Mar 2

Clear
51 °F
30 °F
0%
86%
Sunday
Mar 3

Clouds
54 °F
42 °F
0%
56%
Monday
Mar 4

Clear
56 °F
36 °F
0%
39%
Tuesday
Mar 5

Clouds
67 °F
45 °F
0%
51%
Wednesday
Mar 6

Clouds
68 °F
51 °F
0%
54%
Thursday
Mar 7

Rain
69 °F
55 °F
100%
56%
Friday
Mar 8

Rain
71 °F
52 °F
100%
61%

Temperature 8-14 Day Outlook



Precipitation 8-14 Day Outlook




Quick Links
Lake Minnetonka News
Lake Minnetonka Photos
Lake Minnetonka Videos




About Us
Contact Us
Site Map
Search Site
Advertise With Us
   
Minnetonka.USLakes.info
THE LAKE MINNETONKA WEBSITE

Copyright 2024, Lakes Online
Privacy    |    Legal